Location: Tel Aviv
(32.0670°N, 34.7670°E)
Time: 03:49:06
(UTC+03:00)

Vanguard 2 - Pass Details

Date: 23 January 2022
Orbit: 552 x 2935 km, 32.9° (Epoch: 26 May)

Event Time Altitude Azimuth Distance (km) Brightness Sun altitude
Rises 00:35:38 0° 282° (WNW) 5,678 - -74.2°
Reaches altitude 10° 00:38:55 10° 281° (W) 4,925 - -73.7°
Maximum altitude 00:54:25 82° 197° (SSW) 2,893 - -71.3°
Exits shadow 01:08:16 22° 114° (ESE) 4,741 11.5 -68.9°
Drops below altitude 10° 01:12:20 10° 113° (ESE) 5,579 12.0 -68.2°
Sets 01:16:20 0° 112° (ESE) 6,432 12.4 -67.4°
